Regional Weather Roundup
Issued by NWS Kansas City/Pleasant Hill, MO

Home | Current Version | Previous Version | Text Only | Print | Product List | Glossary On
Versions: 1 2 3 4 5 6 7 8 9 10 11 12 13 14 15 16 17 18 19 20 21 22 23 24 25 26 27 28 29 30 31 32 33 34 35 36 37 38 39 40 41 42 43 44 45 46 47 48 49 50
000
ASUS43 KEAX 030210
RWREAX

WEATHER ROUNDUP FOR EASTERN KANSAS AND NORTHWEST MISSOURI
NATIONAL WEATHER SERVICE KANSAS CITY/PLEASANT HILL MO
900 PM CDT SUN AUG 02 2015

KSZ040-057-103>105-MOZ028-029-037-043-030300-
...KANSAS CITY METROPOLITAN AREA...

CITY           SKY/WX    TMP DP  RH WIND       PRES   REMARKS
K.C. INTL      MOCLDY    79  72  79 SW7       29.84F
K.C. DOWNTOWN  PTCLDY    87  70  56 SW6       29.82F HX  92
LEES SUMMIT    MOCLDY    84  67  56 S7        29.85F
OLATHE - IXD   MOCLDY    85  70  60 SW6       29.87R
OLATHE - OJC   MOCLDY    83  70  64 SW3       29.86R
LAWRENCE       MOCLDY    82  70  66 SW6       29.84S

$$

MOZ001>008-011>017-020>025-030>033-038>040-044>046-053-054-030300-
...NORTHERN AND CENTRAL MISSOURI...

CITY           SKY/WX    TMP DP  RH WIND       PRES   REMARKS
ST. JOSEPH       N/A     81  75  82 SW5       29.81F
MOSBY          PTCLDY    82  68  61 CALM      29.82F
WARRENSBURG    PTCLDY    81  64  57 S5        29.85S
WHITEMAN AFB   PTCLDY    78  69  73 SW8       29.84F
CLINTON        PTCLDY    82  72  69 CALM      29.87S
SEDALIA        PTCLDY    81  67  62 S7        29.87R
WARSAW         NOT AVBL
CHILLICOTHE      N/A     83  72  69 CALM      29.85R
KIRKSVILLE     TSTM      71  61  70 N25G49    29.97R

$$

MOZ041-047>049-056>058-063>065-088>090-097-030300-
...EASTERN AND SOUTHERN MISSOURI...

CITY           SKY/WX    TMP DP  RH WIND       PRES   REMARKS
ST. LOUIS INTL PTCLDY    88  66  48 SW7       29.84S HX  90
SPIRIT OF STL  CLEAR     80  70  71 CALM      29.83S
COLUMBIA       CLEAR     78  70  76 S8        29.86S
JEFFERSON CITY CLEAR     84  68  58 S5        29.84R
ROLLA          CLEAR     74  68  81 S6        29.88R
OSAGE BEACH    CLEAR     81  70  69 CALM      29.88S
SPRINGFIELD    CLEAR     77  66  68 SW5       29.92R
BRANSON        PTCLDY    81  66  61 CALM      29.93S
JOPLIN         CLEAR     79  64  60 S6        29.90S
WEST PLAINS    CLEAR     78  69  73 CALM      29.93R

$$

IAZ060-094-KSZ022-034>040-054-083-096-NEZ052-066-093-030300-
...KANSAS...SOUTHEAST NEBRASKA AND IOWA...

CITY           SKY/WX    TMP DP  RH WIND       PRES   REMARKS
TOPEKA         PTCLDY    86  72  62 S5        29.84S HX  92
MANHATTAN      PTCLDY    82  72  71 SW7       29.83S
EMPORIA        CLEAR     79  67  66 SW7       29.88R
CHANUTE        CLEAR     80  63  55 SW6       29.89R
WICHITA        PTCLDY    81  69  67 S7        29.88R
OMAHA          PTCLDY    82  75  79 NW6       29.81R
LINCOLN        CLOUDY    85  72  65 NE10      29.82R HX  91
FALLS CITY     CLOUDY    84  74  71 SW9       29.80F HX  91
LAMONI         TSTM      74  58  57 SW20      29.84F
DES MOINES     PTCLDY    77  67  71 SW7       29.81R

$$




USA.gov is the U.S. government's official web portal to all federal, state and local government web resources and services.